| time (UTC) | temp C | wind direction | speed KPH | gust KPH | rain 1hr cm | rain 24hr cm | rain mn cm | humidity % | barometer mb |
| 20260506084556 | 11 | 11 | 0.0 | 1.6 | 0.00 | 0.00 | 0.00 | 89 | 1019.6 |
| 20260506083055 | 11 | 0 | 0.0 | 3.2 | 0.00 | 0.00 | 0.00 | 89 | 1019.5 |
| 20260506081605 | 11 | 11 | 1.6 | 4.8 | 0.00 | 0.00 | 0.00 | 88 | 1019.4 |
| 20260506073053 | 12 | 11 | 0.0 | 3.2 | 0.00 | 0.00 | 0.00 | 87 | 1019.3 |
| 20260506071555 | 12 | 11 | 0.0 | 4.8 | 0.00 | 0.00 | 0.00 | 87 | 1019.2 |
| 20260506061552 | 13 | 0 | 0.0 | 4.8 | 0.00 | 0.00 | 0.00 | 85 | 1018.8 |
| 20260506044555 | 13 | 321 | 0.0 | 6.4 | 0.00 | 0.00 | 0.00 | 84 | 1018.6 |
| 20260506043055 | 13 | 0 | 0.0 | 6.4 | 0.00 | 0.00 | 0.00 | 84 | 1018.4 |
| 20260506041552 | 13 | 355 | 3.2 | 8.0 | 0.00 | 0.00 | 0.00 | 84 | 1018.3 |
| 20260506040056 | 13 | 342 | 0.0 | 4.8 | 0.00 | 0.00 | 0.00 | 84 | 1018.1 |
| 20260506034613 | 13 | 342 | 1.6 | 6.4 | 0.00 | 0.00 | 0.00 | 84 | 1017.9 |
| 20260506033052 | 13 | 302 | 1.6 | 6.4 | 0.00 | 0.00 | 0.00 | 84 | 1017.7 |
| 20260506031556 | 13 | 309 | 1.6 | 6.4 | 0.00 | 0.00 | 0.00 | 84 | 1017.5 |
| 20260506030056 | 14 | 293 | 0.0 | 6.4 | 0.00 | 0.00 | 0.00 | 83 | 1017.5 |
| 20260506024558 | 14 | 306 | 3.2 | 11.3 | 0.00 | 0.00 | 0.00 | 83 | 1017.4 |
| 20260506023100 | 14 | 20 | 0.0 | 12.9 | 0.00 | 0.00 | 0.00 | 83 | 1017.6 |
| 20260506021554 | 14 | 316 | 4.8 | 14.5 | 0.00 | 0.00 | 0.00 | 81 | 1017.3 |
| 20260506020052 | 14 | 321 | 1.6 | 16.1 | 0.00 | 0.00 | 0.00 | 81 | 1017.2 |
| 20260506014552 | 14 | 308 | 6.4 | 14.5 | 0.00 | 0.00 | 0.00 | 80 | 1017.0 |
| 20260506013108 | 14 | 260 | 4.8 | 11.3 | 0.00 | 0.00 | 0.00 | 79 | 1016.9 |
| 20260506011557 | 14 | 0 | 3.2 | 17.7 | 0.00 | 0.00 | 0.00 | 78 | 1017.0 |
| 20260506010118 | 14 | 294 | 6.4 | 17.7 | 0.00 | 0.00 | 0.00 | 78 | 1017.0 |
| 20260506004551 | 14 | 280 | 9.7 | 16.1 | 0.00 | 0.00 | 0.00 | 78 | 1017.0 |
| 20260506003101 | 15 | 284 | 12.9 | 19.3 | 0.00 | 0.00 | 0.00 | 77 | 1017.0 |
| 20260506001601 | 15 | 271 | 9.7 | 20.9 | 0.00 | 0.00 | 0.00 | 77 | 1016.9 |
| 20260506000054 | 15 | 264 | 11.3 | 24.1 | 0.00 | 0.00 | 0.00 | 76 | 1016.8 |
| 20260505234552 | 15 | 270 | 9.7 | 19.3 | 0.00 | 0.00 | 0.00 | 78 | 1016.7 |
| 20260505233103 | 14 | 229 | 11.3 | 19.3 | 0.00 | 0.00 | 0.00 | 78 | 1016.7 |
| 20260505231556 | 14 | 221 | 14.5 | 20.9 | 0.00 | 0.00 | 0.00 | 78 | 1016.6 |
| 20260505230057 | 14 | 205 | 11.3 | 16.1 | 0.00 | 0.00 | 0.00 | 79 | 1016.8 |
| 20260505224552 | 14 | 267 | 9.7 | 19.3 | 0.00 | 0.00 | 0.00 | 81 | 1016.9 |
| 20260505223056 | 13 | 231 | 12.9 | 19.3 | 0.00 | 0.00 | 0.00 | 81 | 1017.0 |
| 20260505221551 | 13 | 219 | 11.3 | 16.1 | 0.00 | 0.00 | 0.00 | 82 | 1017.2 |
| 20260505220055 | 13 | 239 | 9.7 | 16.1 | 0.00 | 0.00 | 0.00 | 81 | 1017.2 |
| 20260505214605 | 13 | 217 | 9.7 | 20.9 | 0.00 | 0.00 | 0.00 | 83 | 1017.3 |
| 20260505213052 | 13 | 217 | 11.3 | 19.3 | 0.00 | 0.00 | 0.00 | 82 | 1017.5 |
| 20260505211550 | 13 | 249 | 12.9 | 19.3 | 0.00 | 0.00 | 0.00 | 81 | 1017.5 |
| 20260505210051 | 13 | 209 | 9.7 | 17.7 | 0.00 | 0.00 | 0.00 | 81 | 1017.3 |
| 20260505204550 | 13 | 246 | 9.7 | 17.7 | 0.00 | 0.00 | 0.00 | 82 | 1017.4 |
| 20260505203050 | 13 | 229 | 9.7 | 16.1 | 0.00 | 0.00 | 0.00 | 81 | 1017.4 |
| 20260505201555 | 13 | 219 | 12.9 | 17.7 | 0.00 | 0.00 | 0.00 | 81 | 1017.6 |
| 20260505200052 | 13 | 232 | 9.7 | 16.1 | 0.00 | 0.00 | 0.00 | 79 | 1017.6 |
| 20260505194556 | 13 | 254 | 9.7 | 17.7 | 0.00 | 0.00 | 0.00 | 80 | 1017.6 |
| 20260505193054 | 13 | 263 | 6.4 | 16.1 | 0.00 | 0.00 | 0.00 | 80 | 1017.6 |
| 20260505191605 | 13 | 232 | 4.8 | 14.5 | 0.00 | 0.00 | 0.00 | 82 | 1017.7 |
| 20260505184558 | 13 | 225 | 4.8 | 12.9 | 0.00 | 0.00 | 0.00 | 81 | 1017.7 |
| 20260505183114 | 13 | 292 | 9.7 | 16.1 | 0.00 | 0.00 | 0.00 | 79 | 1017.7 |
| 20260505181553 | 13 | 255 | 9.7 | 16.1 | 0.00 | 0.00 | 0.00 | 81 | 1017.4 |
| 20260505180056 | 13 | 223 | 6.4 | 9.7 | 0.00 | 0.00 | 0.00 | 81 | 1017.2 |
| 20260505174556 | 13 | 252 | 4.8 | 12.9 | 0.00 | 0.00 | 0.00 | 81 | 1017.2 |
| 20260505173101 | 13 | 246 | 1.6 | 6.4 | 0.00 | 0.00 | 0.00 | 81 | 1017.1 |
| 20260505171601 | 13 | 281 | 4.8 | 11.3 | 0.00 | 0.00 | 0.00 | 82 | 1017.1 |
| 20260505170058 | 13 | 0 | 4.8 | 9.7 | 0.00 | 0.00 | 0.00 | 83 | 1017.0 |
| 20260505164552 | 13 | 261 | 3.2 | 6.4 | 0.00 | 0.00 | 0.00 | 84 | 1016.7 |
| 20260505163051 | 13 | 318 | 1.6 | 12.9 | 0.00 | 0.00 | 0.00 | 84 | 1016.7 |
| 20260505161610 | 13 | 259 | 6.4 | 11.3 | 0.00 | 0.00 | 0.00 | 84 | 1016.6 |
| 20260505153052 | 12 | 262 | 3.2 | 9.7 | 0.00 | 0.00 | 0.00 | 84 | 1016.4 |
| 20260505151604 | 12 | 0 | 0.0 | 4.8 | 0.00 | 0.00 | 0.00 | 84 | 1016.3 |
| 20260505124553 | 11 | 0 | 0.0 | 1.6 | 0.00 | 0.00 | 0.00 | 87 | 1015.7 |
| 20260505123055 | 11 | 0 | 0.0 | 3.2 | 0.00 | 0.00 | 0.00 | 87 | 1015.7 |
| 20260505121551 | 11 | 0 | 0.0 | 3.2 | 0.00 | 0.00 | 0.00 | 87 | 1015.7 |
| 20260505120109 | 11 | 0 | 0.0 | 3.2 | 0.00 | 0.00 | 0.00 | 87 | 1015.5 |
| 20260505114552 | 11 | 0 | 0.0 | 3.2 | 0.00 | 0.00 | 0.00 | 87 | 1015.4 |
| 20260505113055 | 11 | 72 | 1.6 | 3.2 | 0.00 | 0.00 | 0.00 | 87 | 1015.4 |
| 20260505111552 | 11 | 72 | 0.0 | 1.6 | 0.00 | 0.00 | 0.00 | 88 | 1015.5 |
| 20260505101555 | 11 | 61 | 3.2 | 11.3 | 0.00 | 0.03 | 0.00 | 88 | 1015.6 |
| 20260505100052 | 11 | 118 | 3.2 | 6.4 | 0.00 | 0.03 | 0.00 | 89 | 1015.7 |
| 20260505094554 | 11 | 0 | 0.0 | 3.2 | 0.00 | 0.03 | 0.00 | 89 | 1015.7 |
| 20260505093055 | 11 | 347 | 0.0 | 4.8 | 0.00 | 0.03 | 0.00 | 89 | 1015.9 |
| 20260505091552 | 11 | 347 | 1.6 | 4.8 | 0.00 | 0.03 | 0.00 | 89 | 1016.0 |
| 20260505090051 | 11 | 0 | 0.0 | 3.2 | 0.00 | 0.03 | 0.00 | 88 | 1016.0 |